Year,Month,Day,Hour,Minute,Value (Times are PST for windspeed in km/hr)
2017,06,07,00,00,4.30
2017,06,07,00,01,7.10
2017,06,07,00,02,7.20
2017,06,07,00,03,5.10
2017,06,07,00,04,4.60
2017,06,07,00,05,4.90
2017,06,07,00,06,4.70
2017,06,07,00,07,6.40
2017,06,07,00,08,5.40
2017,06,07,00,09,4.70
2017,06,07,00,10,3.70
2017,06,07,00,11,5.00
2017,06,07,00,12,5.50
2017,06,07,00,13,6.40
2017,06,07,00,14,4.50
2017,06,07,00,15,5.40
2017,06,07,00,16,4.80
2017,06,07,00,17,5.20
2017,06,07,00,18,3.40
2017,06,07,00,19,4.20
2017,06,07,00,20,4.30
2017,06,07,00,21,4.10
2017,06,07,00,22,3.80
2017,06,07,00,23,3.10
2017,06,07,00,24,2.70
2017,06,07,00,25,3.60
2017,06,07,00,26,1.10
2017,06,07,00,27,0.80
2017,06,07,00,28,1.80
2017,06,07,00,29,2.80
2017,06,07,00,30,2.70
2017,06,07,00,31,2.50
2017,06,07,00,32,2.40
2017,06,07,00,33,3.10
2017,06,07,00,34,3.90
2017,06,07,00,35,3.90
2017,06,07,00,36,5.20
2017,06,07,00,37,5.60
2017,06,07,00,38,7.10
2017,06,07,00,39,1.50
2017,06,07,00,40,2.80
2017,06,07,00,41,2.50
2017,06,07,00,42,1.00
2017,06,07,00,43,1.80
2017,06,07,00,44,1.80
2017,06,07,00,45,2.30
2017,06,07,00,46,5.00
2017,06,07,00,47,4.60
2017,06,07,00,48,5.30
2017,06,07,00,49,5.40
2017,06,07,00,50,4.40
2017,06,07,00,51,5.40
2017,06,07,00,52,4.90
2017,06,07,00,53,3.80
2017,06,07,00,54,5.40
2017,06,07,00,55,5.40
2017,06,07,00,56,4.20
2017,06,07,00,57,3.30
2017,06,07,00,58,3.30
2017,06,07,00,59,4.00
2017,06,07,01,00,2.90
2017,06,07,01,01,2.70
2017,06,07,01,02,3.20
2017,06,07,01,03,4.10
2017,06,07,01,04,4.80
2017,06,07,01,05,5.10
2017,06,07,01,06,5.30
2017,06,07,01,07,4.10
2017,06,07,01,08,4.50
2017,06,07,01,09,6.40
2017,06,07,01,10,4.90
2017,06,07,01,11,4.60
2017,06,07,01,12,3.90
2017,06,07,01,13,2.00
2017,06,07,01,14,3.90
2017,06,07,01,15,5.10
2017,06,07,01,16,3.90
2017,06,07,01,17,2.80
2017,06,07,01,18,2.80
2017,06,07,01,19,1.80
2017,06,07,01,20,0.10
2017,06,07,01,21,0.00
2017,06,07,01,22,0.00
2017,06,07,01,23,0.00
2017,06,07,01,24,1.80
2017,06,07,01,25,3.20
2017,06,07,01,26,3.40
2017,06,07,01,27,4.50
2017,06,07,01,28,5.70
2017,06,07,01,29,7.10
2017,06,07,01,30,6.20
2017,06,07,01,31,5.50
2017,06,07,01,32,5.10
2017,06,07,01,33,6.40
2017,06,07,01,34,5.90
2017,06,07,01,35,3.20
2017,06,07,01,36,2.30
2017,06,07,01,37,2.60
2017,06,07,01,38,1.80
2017,06,07,01,39,3.10
2017,06,07,01,40,5.60
2017,06,07,01,41,6.80
2017,06,07,01,42,7.80
2017,06,07,01,43,7.00
2017,06,07,01,44,5.30
2017,06,07,01,45,3.90
2017,06,07,01,46,4.50
2017,06,07,01,47,5.30
2017,06,07,01,48,2.80
2017,06,07,01,49,3.10
2017,06,07,01,50,2.80
2017,06,07,01,51,2.40
2017,06,07,01,52,2.60
2017,06,07,01,53,2.80
2017,06,07,01,54,3.60
2017,06,07,01,55,2.60
2017,06,07,01,56,3.40
2017,06,07,01,57,3.70
2017,06,07,01,58,3.90
2017,06,07,01,59,3.40
2017,06,07,02,00,2.90
2017,06,07,02,01,3.20
2017,06,07,02,02,3.10
2017,06,07,02,03,3.20
2017,06,07,02,04,2.00
2017,06,07,02,05,2.80
2017,06,07,02,06,2.20
2017,06,07,02,07,2.00
2017,06,07,02,08,2.20
2017,06,07,02,09,1.60
2017,06,07,02,10,1.00
2017,06,07,02,11,0.10
2017,06,07,02,12,0.00
2017,06,07,02,13,0.00
2017,06,07,02,14,0.50
2017,06,07,02,15,0.70
2017,06,07,02,16,1.90
2017,06,07,02,17,2.60
2017,06,07,02,18,4.40
2017,06,07,02,19,3.90
2017,06,07,02,20,4.00
2017,06,07,02,21,3.70
2017,06,07,02,22,3.60
2017,06,07,02,23,2.40
2017,06,07,02,24,2.10
2017,06,07,02,25,3.20
2017,06,07,02,26,4.10
2017,06,07,02,27,2.70
2017,06,07,02,28,3.40
2017,06,07,02,29,3.70
2017,06,07,02,30,3.00
2017,06,07,02,31,2.80
2017,06,07,02,32,2.70
2017,06,07,02,33,3.40
2017,06,07,02,34,3.60
2017,06,07,02,35,3.10
2017,06,07,02,36,3.10
2017,06,07,02,37,3.60
2017,06,07,02,38,3.70
2017,06,07,02,39,2.60
2017,06,07,02,40,2.10
2017,06,07,02,41,2.60
2017,06,07,02,42,2.90
2017,06,07,02,43,3.70
2017,06,07,02,44,4.10
2017,06,07,02,45,3.50
2017,06,07,02,46,3.70
2017,06,07,02,47,4.20
2017,06,07,02,48,4.10
2017,06,07,02,49,3.10
2017,06,07,02,50,4.00
2017,06,07,02,51,5.20
2017,06,07,02,52,4.20
2017,06,07,02,53,3.40
2017,06,07,02,54,2.30
2017,06,07,02,55,3.60
2017,06,07,02,56,4.50
2017,06,07,02,57,5.10
2017,06,07,02,58,4.40
2017,06,07,02,59,3.40
2017,06,07,03,00,2.50
2017,06,07,03,01,1.50
2017,06,07,03,02,2.60
2017,06,07,03,03,2.80
2017,06,07,03,04,1.50
2017,06,07,03,05,2.70
2017,06,07,03,06,3.60
2017,06,07,03,07,4.60
2017,06,07,03,08,3.80
2017,06,07,03,09,3.60
2017,06,07,03,10,4.60
2017,06,07,03,11,4.70
2017,06,07,03,12,2.10
2017,06,07,03,13,1.00
2017,06,07,03,14,2.60
2017,06,07,03,15,2.70
2017,06,07,03,16,2.20
2017,06,07,03,17,2.20
2017,06,07,03,18,2.60
2017,06,07,03,19,2.30
2017,06,07,03,20,3.60
2017,06,07,03,21,5.30
2017,06,07,03,22,5.10
2017,06,07,03,23,5.20
2017,06,07,03,24,5.90
2017,06,07,03,25,6.70
2017,06,07,03,26,5.40
2017,06,07,03,27,4.80
2017,06,07,03,28,4.40
2017,06,07,03,29,4.80
2017,06,07,03,30,3.40
2017,06,07,03,31,3.70
2017,06,07,03,32,1.20
2017,06,07,03,33,0.00
2017,06,07,03,34,0.00
2017,06,07,03,35,0.00
2017,06,07,03,36,0.00
2017,06,07,03,37,0.00
2017,06,07,03,38,0.40
2017,06,07,03,39,1.80
2017,06,07,03,40,1.60
2017,06,07,03,41,0.80
2017,06,07,03,42,3.00
2017,06,07,03,43,2.90
2017,06,07,03,44,4.10
2017,06,07,03,45,3.40
2017,06,07,03,46,2.90
2017,06,07,03,47,2.80
2017,06,07,03,48,2.70
2017,06,07,03,49,3.70
2017,06,07,03,50,2.80
2017,06,07,03,51,2.60
2017,06,07,03,52,2.70
2017,06,07,03,53,1.40
2017,06,07,03,54,1.50
2017,06,07,03,55,0.20
2017,06,07,03,56,1.20
2017,06,07,03,57,0.80
2017,06,07,03,58,3.00
2017,06,07,03,59,3.60
2017,06,07,04,00,2.90
2017,06,07,04,01,1.40
2017,06,07,04,02,2.50
2017,06,07,04,03,1.90
2017,06,07,04,04,3.10
2017,06,07,04,05,3.20
2017,06,07,04,06,2.10
2017,06,07,04,07,2.40
2017,06,07,04,08,1.50
2017,06,07,04,09,1.40
2017,06,07,04,10,0.20
2017,06,07,04,11,1.50
2017,06,07,04,12,2.60
2017,06,07,04,13,2.50
2017,06,07,04,14,3.30
2017,06,07,04,15,2.40
2017,06,07,04,16,2.60
2017,06,07,04,17,2.80
2017,06,07,04,18,2.50
2017,06,07,04,19,2.90
2017,06,07,04,20,3.00
2017,06,07,04,21,3.40
2017,06,07,04,22,2.20
2017,06,07,04,23,2.90
2017,06,07,04,24,4.50
2017,06,07,04,25,4.60
2017,06,07,04,26,4.20
2017,06,07,04,27,3.10
2017,06,07,04,28,2.80
2017,06,07,04,29,3.00
2017,06,07,04,30,2.90
2017,06,07,04,31,1.10
2017,06,07,04,32,0.50
2017,06,07,04,33,0.30
2017,06,07,04,34,0.40
2017,06,07,04,35,0.50
2017,06,07,04,36,0.70
2017,06,07,04,37,0.40
2017,06,07,04,38,1.50
2017,06,07,04,39,2.30
2017,06,07,04,40,2.90
2017,06,07,04,41,2.40
2017,06,07,04,42,2.00
2017,06,07,04,43,1.20
2017,06,07,04,44,2.30
2017,06,07,04,45,0.80
2017,06,07,04,46,0.50
2017,06,07,04,47,1.40
2017,06,07,04,48,0.80
2017,06,07,04,49,1.30
2017,06,07,04,50,2.20
2017,06,07,04,51,3.00
2017,06,07,04,52,3.40
2017,06,07,04,53,2.80
2017,06,07,04,54,2.30
2017,06,07,04,55,2.40
2017,06,07,04,56,1.80
2017,06,07,04,57,2.00
2017,06,07,04,58,2.10
2017,06,07,04,59,2.30
2017,06,07,05,00,1.50
2017,06,07,05,01,1.60
2017,06,07,05,02,1.20
2017,06,07,05,03,1.70
2017,06,07,05,04,1.80
2017,06,07,05,05,2.40
2017,06,07,05,06,2.50
2017,06,07,05,07,1.30
2017,06,07,05,08,1.40
2017,06,07,05,09,1.70
2017,06,07,05,10,1.80
2017,06,07,05,11,2.00
2017,06,07,05,12,2.60
2017,06,07,05,13,1.80
2017,06,07,05,14,1.80
2017,06,07,05,15,1.70
2017,06,07,05,16,2.50
2017,06,07,05,17,3.10
2017,06,07,05,18,1.50
2017,06,07,05,19,1.60
2017,06,07,05,20,0.10
2017,06,07,05,21,0.90
2017,06,07,05,22,1.80
2017,06,07,05,23,1.30
2017,06,07,05,24,1.00
2017,06,07,05,25,0.50
2017,06,07,05,26,0.10
2017,06,07,05,27,0.10
2017,06,07,05,28,0.00
2017,06,07,05,29,0.20
2017,06,07,05,30,0.00
2017,06,07,05,31,0.00
2017,06,07,05,32,1.20
2017,06,07,05,33,1.60
2017,06,07,05,34,1.80
2017,06,07,05,35,0.50
2017,06,07,05,36,1.20
2017,06,07,05,37,1.80
2017,06,07,05,38,2.20
2017,06,07,05,39,2.30
2017,06,07,05,40,2.10
2017,06,07,05,41,2.10
2017,06,07,05,42,1.00
2017,06,07,05,43,1.70
2017,06,07,05,44,3.70
2017,06,07,05,45,4.90
2017,06,07,05,46,6.30
2017,06,07,05,47,5.30
2017,06,07,05,48,4.00
2017,06,07,05,49,4.80
2017,06,07,05,50,3.80
2017,06,07,05,51,2.80
2017,06,07,05,52,2.00
2017,06,07,05,53,2.40
2017,06,07,05,54,1.80
2017,06,07,05,55,1.40
2017,06,07,05,56,0.80
2017,06,07,05,57,1.30
2017,06,07,05,58,0.40
2017,06,07,05,59,0.30
2017,06,07,06,00,0.10
2017,06,07,06,01,0.50
2017,06,07,06,02,1.30
2017,06,07,06,03,1.10
2017,06,07,06,04,1.60
2017,06,07,06,05,1.60
2017,06,07,06,06,1.60
2017,06,07,06,07,1.60
2017,06,07,06,08,1.60
2017,06,07,06,09,1.60
2017,06,07,06,10,1.60
2017,06,07,06,11,1.10
2017,06,07,06,12,0.70
2017,06,07,06,13,0.30
2017,06,07,06,14,0.00
2017,06,07,06,15,0.00
2017,06,07,06,16,0.00
2017,06,07,06,17,0.00
2017,06,07,06,18,0.00
2017,06,07,06,19,0.00
2017,06,07,06,20,0.00
2017,06,07,06,21,0.80
2017,06,07,06,22,1.40
2017,06,07,06,23,1.40
2017,06,07,06,24,1.90
2017,06,07,06,25,1.40
2017,06,07,06,26,1.60
2017,06,07,06,27,2.80
2017,06,07,06,28,4.20
2017,06,07,06,29,5.60
2017,06,07,06,30,5.10
2017,06,07,06,31,5.70
2017,06,07,06,32,5.70
2017,06,07,06,33,4.20
2017,06,07,06,34,4.50
2017,06,07,06,35,4.10
2017,06,07,06,36,5.90
2017,06,07,06,37,3.60
2017,06,07,06,38,5.10
2017,06,07,06,39,4.60
2017,06,07,06,40,4.70
2017,06,07,06,41,5.10
2017,06,07,06,42,4.40
2017,06,07,06,43,3.50
2017,06,07,06,44,4.10
2017,06,07,06,45,2.70
2017,06,07,06,46,2.00
2017,06,07,06,47,1.50
2017,06,07,06,48,1.10
2017,06,07,06,49,0.70
2017,06,07,06,50,1.20
2017,06,07,06,51,1.00
2017,06,07,06,52,1.20
2017,06,07,06,53,0.80
2017,06,07,06,54,0.30
2017,06,07,06,55,0.10
2017,06,07,06,56,0.00
2017,06,07,06,57,0.00
2017,06,07,06,58,0.00
2017,06,07,06,59,0.00
2017,06,07,07,00,0.30
2017,06,07,07,01,0.10
2017,06,07,07,02,0.00
2017,06,07,07,03,0.00
2017,06,07,07,04,0.00
2017,06,07,07,05,0.00
2017,06,07,07,06,1.00
2017,06,07,07,07,2.80
2017,06,07,07,08,3.10
2017,06,07,07,09,2.60
2017,06,07,07,10,3.00
2017,06,07,07,11,2.20
2017,06,07,07,12,1.70
2017,06,07,07,13,1.50
2017,06,07,07,14,2.10
2017,06,07,07,15,0.90
2017,06,07,07,16,1.10
2017,06,07,07,17,1.80
2017,06,07,07,18,1.30
2017,06,07,07,19,1.50
2017,06,07,07,20,2.30
2017,06,07,07,21,2.60
2017,06,07,07,22,1.80
2017,06,07,07,23,1.40
2017,06,07,07,24,1.00
2017,06,07,07,25,0.60
2017,06,07,07,26,1.00
2017,06,07,07,27,0.20
2017,06,07,07,28,0.00
2017,06,07,07,29,0.00
2017,06,07,07,30,0.00
2017,06,07,07,31,0.00
2017,06,07,07,32,0.20
2017,06,07,07,33,0.10
2017,06,07,07,34,0.00
2017,06,07,07,35,0.10
2017,06,07,07,36,0.50
2017,06,07,07,37,0.20
2017,06,07,07,38,0.50
2017,06,07,07,39,0.60
2017,06,07,07,40,1.20
2017,06,07,07,41,1.00
2017,06,07,07,42,2.00
2017,06,07,07,43,3.20
2017,06,07,07,44,2.40
2017,06,07,07,45,2.10
2017,06,07,07,46,1.30
2017,06,07,07,47,1.80
2017,06,07,07,48,3.00
2017,06,07,07,49,1.50
2017,06,07,07,50,1.50
2017,06,07,07,51,0.20
2017,06,07,07,52,0.30
2017,06,07,07,53,1.50
2017,06,07,07,54,1.50
2017,06,07,07,55,0.40
2017,06,07,07,56,0.40
2017,06,07,07,57,2.20
2017,06,07,07,58,1.60
2017,06,07,07,59,0.80
2017,06,07,08,00,1.30
2017,06,07,08,01,1.60
2017,06,07,08,02,0.80
2017,06,07,08,03,2.10
2017,06,07,08,04,0.80
2017,06,07,08,05,1.80
2017,06,07,08,06,0.70
2017,06,07,08,07,1.50
2017,06,07,08,08,1.70
2017,06,07,08,09,1.60
2017,06,07,08,10,1.60
2017,06,07,08,11,1.40
2017,06,07,08,12,0.70
2017,06,07,08,13,0.20
2017,06,07,08,14,0.30
2017,06,07,08,15,1.00
2017,06,07,08,16,0.80
2017,06,07,08,17,1.60
2017,06,07,08,18,2.60
2017,06,07,08,19,1.40
2017,06,07,08,20,2.30
2017,06,07,08,21,2.20
2017,06,07,08,22,2.60
2017,06,07,08,23,0.90
2017,06,07,08,24,0.30
2017,06,07,08,25,0.50
2017,06,07,08,26,1.60
2017,06,07,08,27,1.40
2017,06,07,08,28,1.90
2017,06,07,08,29,1.50
2017,06,07,08,30,2.40
2017,06,07,08,31,3.70
2017,06,07,08,32,3.50
2017,06,07,08,33,0.70
2017,06,07,08,34,4.20
2017,06,07,08,35,5.00
2017,06,07,08,36,3.40
2017,06,07,08,37,1.60
2017,06,07,08,38,4.00
2017,06,07,08,39,5.30
2017,06,07,08,40,3.20
2017,06,07,08,41,4.20
2017,06,07,08,42,2.00
2017,06,07,08,43,4.30
2017,06,07,08,44,5.40
2017,06,07,08,45,3.40
2017,06,07,08,46,6.90
2017,06,07,08,47,5.40
2017,06,07,08,48,3.60
2017,06,07,08,49,2.10
2017,06,07,08,50,1.10
2017,06,07,08,51,3.30
2017,06,07,08,52,4.10
2017,06,07,08,53,6.10
2017,06,07,08,54,3.90
2017,06,07,08,55,5.40
2017,06,07,08,56,2.70
2017,06,07,08,57,4.00
2017,06,07,08,58,2.50
2017,06,07,08,59,4.80
2017,06,07,09,00,2.80
2017,06,07,09,01,1.90
2017,06,07,09,02,2.10
2017,06,07,09,03,1.80
2017,06,07,09,04,2.80
2017,06,07,09,05,1.50
2017,06,07,09,06,0.60
2017,06,07,09,07,1.70
2017,06,07,09,08,2.80
2017,06,07,09,09,2.10
2017,06,07,09,10,2.40
2017,06,07,09,11,2.50
2017,06,07,09,12,1.50
2017,06,07,09,13,1.00
2017,06,07,09,14,3.30
2017,06,07,09,15,2.50
2017,06,07,09,16,2.60
2017,06,07,09,17,2.70
2017,06,07,09,18,3.70
2017,06,07,09,19,4.10
2017,06,07,09,20,1.50
2017,06,07,09,21,2.60
2017,06,07,09,22,2.40
2017,06,07,09,23,3.10
2017,06,07,09,24,3.00
2017,06,07,09,25,1.80
2017,06,07,09,26,2.10
2017,06,07,09,27,2.40
2017,06,07,09,28,2.50
2017,06,07,09,29,1.00
2017,06,07,09,30,1.90
2017,06,07,09,31,2.90
2017,06,07,09,32,3.20
2017,06,07,09,33,3.20
2017,06,07,09,34,3.20
2017,06,07,09,35,3.20
2017,06,07,09,36,2.80
2017,06,07,09,37,0.60
2017,06,07,09,38,2.30
2017,06,07,09,39,5.70
2017,06,07,09,40,4.30
2017,06,07,09,41,3.00
2017,06,07,09,42,2.70
2017,06,07,09,43,1.50
2017,06,07,09,44,3.30
2017,06,07,09,45,5.00
2017,06,07,09,46,2.90
2017,06,07,09,47,2.50
2017,06,07,09,48,2.10
2017,06,07,09,49,4.70
2017,06,07,09,50,6.00
2017,06,07,09,51,4.60
2017,06,07,09,52,2.60
2017,06,07,09,53,3.60
2017,06,07,09,54,3.70
2017,06,07,09,55,4.90
2017,06,07,09,56,5.50
2017,06,07,09,57,4.80
2017,06,07,09,58,2.50
2017,06,07,09,59,2.70
2017,06,07,10,00,2.30
2017,06,07,10,01,2.80
2017,06,07,10,02,2.10
2017,06,07,10,03,2.00
2017,06,07,10,04,3.80
2017,06,07,10,05,4.00
2017,06,07,10,06,3.40
2017,06,07,10,07,2.90
2017,06,07,10,08,2.40
2017,06,07,10,09,2.80
2017,06,07,10,10,1.80
2017,06,07,10,11,2.30
2017,06,07,10,12,2.80
2017,06,07,10,13,5.30
2017,06,07,10,14,4.70
2017,06,07,10,15,5.00
2017,06,07,10,16,3.40
2017,06,07,10,17,6.00
2017,06,07,10,18,5.60
2017,06,07,10,19,3.40
2017,06,07,10,20,3.10
2017,06,07,10,21,2.10
2017,06,07,10,22,1.80
2017,06,07,10,23,1.70
2017,06,07,10,24,4.90
2017,06,07,10,25,2.60
2017,06,07,10,26,3.20
2017,06,07,10,27,3.10
2017,06,07,10,28,1.30
2017,06,07,10,29,2.10
2017,06,07,10,30,4.40
2017,06,07,10,31,5.60
2017,06,07,10,32,5.60
2017,06,07,10,33,4.50
2017,06,07,10,34,5.70
2017,06,07,10,35,5.40
2017,06,07,10,36,6.60
2017,06,07,10,37,3.10
2017,06,07,10,38,2.20
2017,06,07,10,39,2.20
2017,06,07,10,40,3.40
2017,06,07,10,41,2.40
2017,06,07,10,42,0.50
2017,06,07,10,43,1.30
2017,06,07,10,44,1.10
2017,06,07,10,45,2.60
2017,06,07,10,46,4.10
2017,06,07,10,47,3.90
2017,06,07,10,48,4.20
2017,06,07,10,49,3.10
2017,06,07,10,50,4.50
2017,06,07,10,51,5.10
2017,06,07,10,52,5.00
2017,06,07,10,53,2.90
2017,06,07,10,54,4.80
2017,06,07,10,55,5.90
2017,06,07,10,56,4.40
2017,06,07,10,57,2.20
2017,06,07,10,58,3.60
2017,06,07,10,59,3.50
2017,06,07,11,00,4.30
2017,06,07,11,01,0.90
2017,06,07,11,02,2.70
2017,06,07,11,03,4.10
2017,06,07,11,04,4.50
2017,06,07,11,05,2.20
2017,06,07,11,06,6.00
2017,06,07,11,07,5.10
2017,06,07,11,08,2.00
2017,06,07,11,09,5.50
2017,06,07,11,10,4.70
2017,06,07,11,11,5.40
2017,06,07,11,12,4.20
2017,06,07,11,13,2.80
2017,06,07,11,14,2.20
2017,06,07,11,15,5.30
2017,06,07,11,16,3.20
2017,06,07,11,17,7.00
2017,06,07,11,18,8.80
2017,06,07,11,19,7.70
2017,06,07,11,20,5.50
2017,06,07,11,21,5.00
2017,06,07,11,22,2.10
2017,06,07,11,23,5.10
2017,06,07,11,24,4.60
2017,06,07,11,25,7.90
2017,06,07,11,26,7.00
2017,06,07,11,27,4.00
2017,06,07,11,28,1.80
2017,06,07,11,29,4.40
2017,06,07,11,30,1.50
2017,06,07,11,31,2.10
2017,06,07,11,32,3.30
2017,06,07,11,33,4.50
2017,06,07,11,34,6.00
2017,06,07,11,35,4.70
2017,06,07,11,36,6.60
2017,06,07,11,37,4.60
2017,06,07,11,38,1.50
2017,06,07,11,39,3.60
2017,06,07,11,40,3.60
2017,06,07,11,41,5.20
2017,06,07,11,42,5.90
2017,06,07,11,43,5.30
2017,06,07,11,44,2.80
2017,06,07,11,45,3.90
2017,06,07,11,46,5.60
2017,06,07,11,47,4.50
2017,06,07,11,48,4.40
2017,06,07,11,49,2.50
2017,06,07,11,50,2.30
2017,06,07,11,51,1.20
2017,06,07,11,52,4.30
2017,06,07,11,53,6.20
2017,06,07,11,54,5.20
2017,06,07,11,55,4.20
2017,06,07,11,56,3.60
2017,06,07,11,57,3.60
2017,06,07,11,58,4.90
2017,06,07,11,59,6.40
2017,06,07,12,00,5.80
2017,06,07,12,01,4.30
2017,06,07,12,02,7.90
2017,06,07,12,03,3.40
2017,06,07,12,04,3.40
2017,06,07,12,05,2.30
2017,06,07,12,06,2.90
2017,06,07,12,07,3.10
2017,06,07,12,08,0.80
2017,06,07,12,09,1.30
2017,06,07,12,10,2.30
2017,06,07,12,11,0.60
2017,06,07,12,12,4.80
2017,06,07,12,13,5.20
2017,06,07,12,14,8.30
2017,06,07,12,15,6.20
2017,06,07,12,16,3.50
2017,06,07,12,17,1.50
2017,06,07,12,18,2.50
2017,06,07,12,19,1.70
2017,06,07,12,20,1.30
2017,06,07,12,21,3.60
2017,06,07,12,22,3.70
2017,06,07,12,23,1.20
2017,06,07,12,24,1.50
2017,06,07,12,25,2.40
2017,06,07,12,26,3.40
2017,06,07,12,27,2.80
2017,06,07,12,28,1.50
2017,06,07,12,29,1.70
2017,06,07,12,30,0.70
2017,06,07,12,31,4.10
2017,06,07,12,32,1.80
2017,06,07,12,33,2.60
2017,06,07,12,34,4.90
2017,06,07,12,35,4.90
2017,06,07,12,36,5.20
2017,06,07,12,37,3.80
2017,06,07,12,38,6.80
2017,06,07,12,39,4.80
2017,06,07,12,40,5.20
2017,06,07,12,41,5.70
2017,06,07,12,42,2.00
2017,06,07,12,43,3.20
2017,06,07,12,44,1.30
2017,06,07,12,45,5.30
2017,06,07,12,46,6.00
2017,06,07,12,47,7.30
2017,06,07,12,48,6.20
2017,06,07,12,49,4.30
2017,06,07,12,50,3.90
2017,06,07,12,51,6.30
2017,06,07,12,52,5.20
2017,06,07,12,53,6.30
2017,06,07,12,54,4.80
2017,06,07,12,55,3.10
2017,06,07,12,56,3.40
2017,06,07,12,57,4.20
2017,06,07,12,58,4.70
2017,06,07,12,59,4.40
2017,06,07,13,00,5.40
2017,06,07,13,01,4.70
2017,06,07,13,02,6.10
2017,06,07,13,03,4.80
2017,06,07,13,04,2.80
2017,06,07,13,05,3.70
2017,06,07,13,06,2.90
2017,06,07,13,07,6.20
2017,06,07,13,08,7.60
2017,06,07,13,09,5.20
2017,06,07,13,10,5.00
2017,06,07,13,11,2.90
2017,06,07,13,12,4.10
2017,06,07,13,13,3.40
2017,06,07,13,14,4.40
2017,06,07,13,15,4.60
2017,06,07,13,16,3.70
2017,06,07,13,17,1.90
2017,06,07,13,18,5.90
2017,06,07,13,19,5.10
2017,06,07,13,20,3.40
2017,06,07,13,21,3.50
2017,06,07,13,22,5.40
2017,06,07,13,23,7.90
2017,06,07,13,24,7.10
2017,06,07,13,25,5.80
2017,06,07,13,26,7.70
2017,06,07,13,27,9.60
2017,06,07,13,28,7.90
2017,06,07,13,29,7.50
2017,06,07,13,30,7.60
2017,06,07,13,31,11.50
2017,06,07,13,32,10.90
2017,06,07,13,33,8.50
2017,06,07,13,34,6.60
2017,06,07,13,35,8.80
2017,06,07,13,36,6.10
2017,06,07,13,37,7.10
2017,06,07,13,38,6.80
2017,06,07,13,39,3.70
2017,06,07,13,40,3.50
2017,06,07,13,41,8.10
2017,06,07,13,42,10.80
2017,06,07,13,43,11.70
2017,06,07,13,44,9.40
2017,06,07,13,45,8.10
2017,06,07,13,46,9.50
2017,06,07,13,47,10.60
2017,06,07,13,48,12.50
2017,06,07,13,49,8.70
2017,06,07,13,50,10.80
2017,06,07,13,51,13.90
2017,06,07,13,52,9.20
2017,06,07,13,53,9.80
2017,06,07,13,54,14.30
2017,06,07,13,55,9.90
2017,06,07,13,56,8.40
2017,06,07,13,57,7.40
2017,06,07,13,58,9.80
2017,06,07,13,59,9.70
2017,06,07,14,00,11.50
2017,06,07,14,01,12.60
2017,06,07,14,02,13.00
2017,06,07,14,03,10.00
2017,06,07,14,04,8.70
2017,06,07,14,05,11.10
2017,06,07,14,06,8.90
2017,06,07,14,07,10.20
2017,06,07,14,08,13.60
2017,06,07,14,09,10.80
2017,06,07,14,10,9.20
2017,06,07,14,11,10.00
2017,06,07,14,12,10.10
2017,06,07,14,13,10.50
2017,06,07,14,14,6.10
2017,06,07,14,15,8.00
2017,06,07,14,16,12.00
2017,06,07,14,17,10.30
2017,06,07,14,18,12.30
2017,06,07,14,19,11.30
2017,06,07,14,20,11.00
2017,06,07,14,21,10.00
2017,06,07,14,22,12.30
2017,06,07,14,23,10.50
2017,06,07,14,24,9.40
2017,06,07,14,25,9.00
2017,06,07,14,26,10.40
2017,06,07,14,27,10.20
2017,06,07,14,28,13.30
2017,06,07,14,29,12.10
2017,06,07,14,30,11.90
2017,06,07,14,31,12.00
2017,06,07,14,32,6.40
2017,06,07,14,33,11.30
2017,06,07,14,34,15.40
2017,06,07,14,35,12.30
2017,06,07,14,36,11.00
2017,06,07,14,37,17.20
2017,06,07,14,38,12.30
2017,06,07,14,39,8.60
2017,06,07,14,40,8.60
2017,06,07,14,41,9.50
2017,06,07,14,42,11.00
2017,06,07,14,43,11.30
2017,06,07,14,44,16.00
2017,06,07,14,45,13.40
2017,06,07,14,46,17.50
2017,06,07,14,47,12.50
2017,06,07,14,48,13.10
2017,06,07,14,49,15.30
2017,06,07,14,50,14.00
2017,06,07,14,51,8.20
2017,06,07,14,52,12.70
2017,06,07,14,53,12.30
2017,06,07,14,54,14.40
2017,06,07,14,55,9.70
2017,06,07,14,56,10.40
2017,06,07,14,57,10.90
2017,06,07,14,58,10.80
2017,06,07,14,59,5.40
2017,06,07,15,00,8.80
2017,06,07,15,01,7.40
2017,06,07,15,02,7.90
2017,06,07,15,03,10.20
2017,06,07,15,04,9.00
2017,06,07,15,05,18.50
2017,06,07,15,06,14.60
2017,06,07,15,07,11.00
2017,06,07,15,08,8.60
2017,06,07,15,09,9.40
2017,06,07,15,10,13.30
2017,06,07,15,11,14.70
2017,06,07,15,12,8.10
2017,06,07,15,13,10.00
2017,06,07,15,14,10.70
2017,06,07,15,15,3.90
2017,06,07,15,16,7.70
2017,06,07,15,17,12.60
2017,06,07,15,18,11.90
2017,06,07,15,19,14.80
2017,06,07,15,20,14.60
2017,06,07,15,21,10.20
2017,06,07,15,22,12.90
2017,06,07,15,23,9.30
2017,06,07,15,24,11.10
2017,06,07,15,25,9.30
2017,06,07,15,26,14.00
2017,06,07,15,27,10.70
2017,06,07,15,28,10.50
2017,06,07,15,29,11.40
2017,06,07,15,30,12.40
2017,06,07,15,31,10.50
2017,06,07,15,32,10.60
2017,06,07,15,33,18.80
2017,06,07,15,34,13.30
2017,06,07,15,35,16.80
2017,06,07,15,36,8.80
2017,06,07,15,37,9.00
2017,06,07,15,38,11.90
2017,06,07,15,39,11.30
2017,06,07,15,40,11.20
2017,06,07,15,41,12.00
2017,06,07,15,42,9.10
2017,06,07,15,43,9.60
2017,06,07,15,44,11.40
2017,06,07,15,45,13.80
2017,06,07,15,46,7.80
2017,06,07,15,47,8.60
2017,06,07,15,48,17.10
2017,06,07,15,49,13.00
2017,06,07,15,50,18.20
2017,06,07,15,51,10.80
2017,06,07,15,52,6.80
2017,06,07,15,53,11.40
2017,06,07,15,54,8.30
2017,06,07,15,55,8.40
2017,06,07,15,56,15.40
2017,06,07,15,57,18.40
2017,06,07,15,58,14.90
2017,06,07,15,59,13.10
2017,06,07,16,00,8.90
2017,06,07,16,01,11.20
2017,06,07,16,02,17.50
2017,06,07,16,03,16.00
2017,06,07,16,04,20.80
2017,06,07,16,05,19.90
2017,06,07,16,06,11.60
2017,06,07,16,07,15.00
2017,06,07,16,08,11.70
2017,06,07,16,09,13.90
2017,06,07,16,10,19.80
2017,06,07,16,11,15.80
2017,06,07,16,12,16.20
2017,06,07,16,13,15.90
2017,06,07,16,14,14.30
2017,06,07,16,15,18.20
2017,06,07,16,16,14.90
2017,06,07,16,17,17.20
2017,06,07,16,18,12.70
2017,06,07,16,19,10.70
2017,06,07,16,20,13.10
2017,06,07,16,21,8.90
2017,06,07,16,22,8.30
2017,06,07,16,23,12.90
2017,06,07,16,24,7.40
2017,06,07,16,25,9.10
2017,06,07,16,26,17.10
2017,06,07,16,27,16.80
2017,06,07,16,28,19.10
2017,06,07,16,29,19.30
2017,06,07,16,30,14.30
2017,06,07,16,31,12.30
2017,06,07,16,32,10.70
2017,06,07,16,33,10.30
2017,06,07,16,34,7.60
2017,06,07,16,35,15.60
2017,06,07,16,36,11.60
2017,06,07,16,37,11.60
2017,06,07,16,38,9.30
2017,06,07,16,39,12.90
2017,06,07,16,40,12.70
2017,06,07,16,41,8.40
2017,06,07,16,42,12.10
2017,06,07,16,43,11.50
2017,06,07,16,44,7.90
2017,06,07,16,45,13.50
2017,06,07,16,46,16.60
2017,06,07,16,47,11.90
2017,06,07,16,48,7.20
2017,06,07,16,49,12.90
2017,06,07,16,50,12.00
2017,06,07,16,51,12.00
2017,06,07,16,52,9.70
2017,06,07,16,53,10.70
2017,06,07,16,54,10.70
2017,06,07,16,55,10.80
2017,06,07,16,56,12.90
2017,06,07,16,57,10.00
2017,06,07,16,58,9.00
2017,06,07,16,59,9.80
2017,06,07,17,00,13.20
2017,06,07,17,01,10.80
2017,06,07,17,02,11.10
2017,06,07,17,03,7.60
2017,06,07,17,04,9.20
2017,06,07,17,05,9.10
2017,06,07,17,06,11.40
2017,06,07,17,07,9.70
2017,06,07,17,08,7.70
2017,06,07,17,09,11.30
2017,06,07,17,10,9.40
2017,06,07,17,11,8.30
2017,06,07,17,12,11.60
2017,06,07,17,13,7.70
2017,06,07,17,14,8.50
2017,06,07,17,15,11.40
2017,06,07,17,16,7.70
2017,06,07,17,17,11.30
2017,06,07,17,18,11.90
2017,06,07,17,19,9.70
2017,06,07,17,20,8.10
2017,06,07,17,21,8.60
2017,06,07,17,22,13.60
2017,06,07,17,23,12.90
2017,06,07,17,24,13.70
2017,06,07,17,25,15.60
2017,06,07,17,26,15.80
2017,06,07,17,27,15.20
2017,06,07,17,28,17.50
2017,06,07,17,29,16.20
2017,06,07,17,30,13.80
2017,06,07,17,31,14.30
2017,06,07,17,32,11.60
2017,06,07,17,33,10.50
2017,06,07,17,34,11.00
2017,06,07,17,35,16.60
2017,06,07,17,36,12.70
2017,06,07,17,37,13.40
2017,06,07,17,38,15.30
2017,06,07,17,39,11.00
2017,06,07,17,40,12.10
2017,06,07,17,41,15.20
2017,06,07,17,42,10.90
2017,06,07,17,43,13.00
2017,06,07,17,44,12.20
2017,06,07,17,45,19.30
2017,06,07,17,46,13.10
2017,06,07,17,47,12.60
2017,06,07,17,48,13.30
2017,06,07,17,49,12.50
2017,06,07,17,50,11.70
2017,06,07,17,51,15.90
2017,06,07,17,52,17.40
2017,06,07,17,53,9.50
2017,06,07,17,54,10.70
2017,06,07,17,55,13.80
2017,06,07,17,56,13.00
2017,06,07,17,57,13.10
2017,06,07,17,58,8.10